Manteo, NC

5:50 AM EDT on October 01, 2016 (GMT -0400)
Dare County Regional

Weather History for KMQI - February, 2014

Change the Weather History Date:

Saturday, February 1, 2014

  Actual Average Record
Temperature  
Mean Temperature 39 °F -  
Max Temperature 53 °F 48 °F 73 °F (2002)
Min Temperature 25 °F 36 °F 20 °F (1980)
Degree Days  
Heating Degree Days 26    
Moisture  
Dew Point 38 °F    
Average Humidity 89    
Maximum Humidity 100    
Minimum Humidity 62    
Precipitation  
Precipitation 0.06 in - - ()
Sea Level Pressure  
Sea Level Pressure 30.19 in    
Wind  
Wind Speed 2 mph (NE)    
Max Wind Speed 8 mph    
Max Gust Speed -    
Visibility 8 miles    
Events Fog , Rain    
Averages and records for this station are not official NWS values.
T = Trace of Precipitation, MM = Missing Value Source: NWS Daily Summary

Daily Weather History Graph

Daily Weather History Graph

Search for Another Location

Airport or City:

Trip Planner

Search our weather history database for the weather conditions in past years. The results will help you decide how hot, cold, wet, or windy it might be!

Date:

Astronomy

Feb. 01, 2014 Rise Set
Actual Time 7:03 AM EST 5:29 PM EST
Civil Twilight 6:36 AM EST 5:56 PM EST
Nautical Twilight 6:05 AM EST 6:27 PM EST
Astronomical Twilight 5:35 AM EST 6:57 PM EST
Moon 7:56 AM EST 7:56 PM EST
Length of Visible Light 11h 20m
Length of Day
10h 26m
Waxing Crescent, 5% of the Moon is Illuminated
Feb 1
Waxing Crescent
Feb 6
First Quarter
Feb 14
Full
Feb 22
Last Quarter
Mar 1
New

Hourly Weather History & Observations

Time (EST) Temp. Windchill Dew Point Humidity Pressure Visibility Wind Dir Wind Speed Gust Speed Precip Events Conditions
12:15 AM 27.9 °F - 27.9 °F 100% 30.22 in 7.0 mi Calm Calm - N/A   Clear
12:35 AM 28.4 °F - 28.4 °F 100% 30.23 in 4.0 mi Calm Calm - N/A   Clear
12:55 AM 28.2 °F - 28.2 °F 100% 30.23 in 7.0 mi Calm Calm - N/A   Clear
1:15 AM 27.9 °F - 27.7 °F 99% 30.23 in 7.0 mi Calm Calm - N/A   Clear
1:35 AM 28.2 °F - 28.2 °F 100% 30.23 in 2.0 mi Calm Calm - N/A   Clear
1:55 AM 27.9 °F - 27.9 °F 100% 30.23 in 4.0 mi Calm Calm - N/A   Clear
2:15 AM 26.4 °F - 26.2 °F 99% 30.22 in 3.0 mi Calm Calm - N/A   Clear
2:35 AM 27.7 °F - 27.7 °F 100% 30.22 in 7.0 mi Calm Calm - N/A   Clear
2:55 AM 28.2 °F - 28.2 °F 100% 30.22 in 7.0 mi Calm Calm - N/A   Clear
3:15 AM 28.0 °F - 27.7 °F 99% 30.22 in 10.0 mi Calm Calm - N/A   Clear
3:35 AM 27.3 °F - 27.3 °F 100% 30.22 in 1.2 mi Calm Calm - N/A   Mist
3:55 AM 27.3 °F - 27.3 °F 100% 30.22 in 7.0 mi Calm Calm - N/A   Clear
4:15 AM 25.9 °F - 25.7 °F 99% 30.23 in 10.0 mi Calm Calm - N/A   Clear
4:35 AM 29.3 °F - 29.3 °F 100% 30.23 in 10.0 mi Calm Calm - N/A   Clear
4:55 AM 27.9 °F 24.0 °F 27.9 °F 100% 30.23 in 5.0 mi NNE 3.5 mph - N/A   Clear
5:15 AM 28.8 °F - 28.8 °F 100% 30.24 in 10.0 mi Calm Calm - N/A   Clear
5:35 AM 30.6 °F 25.8 °F 30.6 °F 100% 30.24 in 7.0 mi NNE 4.6 mph - N/A   Clear
5:55 AM 31.5 °F - 31.3 °F 99% 30.24 in 10.0 mi Calm Calm - N/A   Clear
6:15 AM 29.8 °F - 29.7 °F 99% 30.24 in 7.0 mi Calm Calm - N/A   Clear
6:35 AM 28.9 °F 23.9 °F 28.8 °F 99% 30.25 in 0.5 mi North 4.6 mph - N/A Fog Light Freezing Fog
6:55 AM 29.8 °F - 29.8 °F 100% 30.25 in 1.8 mi Calm Calm - N/A   Mist
7:15 AM 29.7 °F 22.8 °F 29.7 °F 100% 30.25 in 2.0 mi NNE 6.9 mph - N/A   Clear
7:35 AM 31.1 °F - 31.1 °F 100% 30.26 in 10.0 mi Calm Calm - N/A   Clear
7:55 AM 32.2 °F 28.9 °F 32.2 °F 100% 30.27 in 10.0 mi NNE 3.5 mph - N/A   Clear
8:15 AM 33.4 °F 30.4 °F 32.9 °F 98% 30.28 in 10.0 mi NNE 3.5 mph - N/A   Clear
8:35 AM 35.4 °F 32.6 °F 35.1 °F 99% 30.28 in 10.0 mi NE 3.5 mph - N/A   Clear
8:55 AM 43.0 °F 40.3 °F 38.5 °F 84% 30.28 in 10.0 mi ENE 4.6 mph - N/A   Clear
9:15 AM 45.5 °F 43.2 °F 37.4 °F 73% 30.28 in 10.0 mi ENE 4.6 mph - N/A   Clear
9:35 AM 46.9 °F - 37.6 °F 70% 30.28 in 10.0 mi ENE 6.9 mph - N/A   Clear
9:55 AM 47.5 °F - 38.7 °F 71% 30.28 in 10.0 mi NE 5.8 mph - N/A   Clear
10:15 AM 48.4 °F - 39.6 °F 72% 30.27 in 10.0 mi NE 6.9 mph - N/A   Clear
10:35 AM 49.1 °F - 40.3 °F 72% 30.27 in 10.0 mi ENE 8.1 mph - N/A   Clear
10:55 AM 49.6 °F - 40.6 °F 71% 30.26 in 10.0 mi ENE 8.1 mph - N/A   Clear
11:15 AM 50.7 °F - 41.2 °F 70% 30.25 in 10.0 mi ENE 6.9 mph - N/A   Scattered Clouds
11:35 AM 51.3 °F - 40.3 °F 66% 30.24 in 10.0 mi ENE 5.8 mph - N/A   Scattered Clouds
11:55 AM 52.2 °F - 39.9 °F 63% 30.24 in 10.0 mi ENE 5.8 mph - N/A   Clear
12:15 PM 52.9 °F - 40.1 °F 62% 30.22 in 10.0 mi NE 8.1 mph - N/A   Clear
12:35 PM 52.7 °F - 40.5 °F 63% 30.21 in 10.0 mi ENE 6.9 mph - N/A   Clear
12:55 PM 52.7 °F - 40.6 °F 64% 30.21 in 10.0 mi NE 6.9 mph - N/A   Clear
1:15 PM 52.3 °F - 40.8 °F 65% 30.21 in 10.0 mi ENE 5.8 mph - N/A   Mostly Cloudy
1:35 PM 53.2 °F - 41.5 °F 65% 30.20 in 10.0 mi ENE 5.8 mph - N/A   Mostly Cloudy
1:55 PM 52.9 °F - 41.5 °F 65% 30.19 in 10.0 mi ENE 5.8 mph - N/A   Mostly Cloudy
2:15 PM 52.7 °F - 41.9 °F 67% 30.18 in 10.0 mi ENE 5.8 mph - N/A   Overcast
2:35 PM 52.5 °F - 42.1 °F 68% 30.17 in 10.0 mi NE 5.8 mph - N/A   Overcast
2:55 PM 52.7 °F - 42.8 °F 69% 30.16 in 10.0 mi East 4.6 mph - N/A   Overcast
3:15 PM 52.9 °F - 43.5 °F 71% 30.16 in 10.0 mi NE 3.5 mph - N/A   Overcast
3:35 PM 52.3 °F - 44.1 °F 73% 30.16 in 10.0 mi NE 6.9 mph - N/A   Overcast
3:55 PM 51.3 °F - 43.7 °F 75% 30.16 in 10.0 mi NNE 5.8 mph - N/A   Overcast
4:15 PM 49.6 °F - 43.5 °F 79% 30.16 in 10.0 mi NNE 5.8 mph - N/A   Overcast
4:35 PM 47.7 °F - 42.6 °F 83% 30.16 in 10.0 mi NNE 4.6 mph - N/A   Overcast
4:55 PM 47.1 °F - 42.3 °F 83% 30.16 in 10.0 mi NNE 5.8 mph - N/A Rain Light Rain
5:15 PM 45.7 °F 42.7 °F 42.8 °F 90% 30.16 in 10.0 mi NNE 5.8 mph - N/A Rain Light Rain
5:35 PM 45.1 °F 43.7 °F 43.0 °F 92% 30.15 in 10.0 mi NNE 3.5 mph - 0.02 in   Drizzle
5:55 PM 45.0 °F - 43.7 °F 95% 30.14 in 10.0 mi Calm Calm - 0.02 in   Overcast
6:15 PM 44.8 °F - 43.9 °F 97% 30.13 in 10.0 mi Calm Calm - N/A   Overcast
6:35 PM 45.7 °F - 45.0 °F 97% 30.13 in 10.0 mi Calm Calm - N/A   Overcast
6:55 PM 44.6 °F - 44.2 °F 99% 30.13 in 10.0 mi Calm Calm - N/A   Overcast
7:15 PM 45.5 °F - 44.8 °F 97% 30.12 in 10.0 mi Calm Calm - 0.01 in   Drizzle
7:35 PM 46.0 °F - 45.5 °F 98% 30.12 in 10.0 mi Calm Calm - 0.01 in   Overcast
7:55 PM 47.1 °F - 46.4 °F 97% 30.12 in 7.0 mi Calm Calm - 0.02 in Rain Light Rain
8:15 PM 47.5 °F - 46.6 °F 97% 30.11 in 7.0 mi SSE 5.8 mph - 0.01 in Rain Heavy Rain
8:35 PM 49.8 °F - 49.6 °F 99% 30.09 in 10.0 mi SE 5.8 mph - 0.02 in   Overcast
8:55 PM 50.9 °F - 50.4 °F 98% 30.09 in 10.0 mi Calm Calm - 0.02 in   Overcast
9:15 PM 48.4 °F - 48.2 °F 99% 30.09 in 5.0 mi Calm Calm - N/A   Overcast
9:35 PM 46.0 °F - 45.9 °F 99% 30.08 in 5.0 mi Calm Calm - N/A   Overcast
9:55 PM 45.5 °F - 45.5 °F 100% 30.08 in 5.0 mi Calm Calm - N/A   Overcast
10:15 PM 45.5 °F - 45.5 °F 100% 30.08 in 2.5 mi Calm Calm - N/A   Overcast
10:35 PM 45.0 °F - 45.0 °F 100% 30.07 in 1.0 mi Calm Calm - N/A   Overcast
10:55 PM 44.4 °F - 44.4 °F 100% 30.07 in 0.5 mi Calm Calm - N/A Fog Fog
11:15 PM 42.8 °F 38.0 °F 42.8 °F 100% 30.08 in 0.5 mi NW 8.1 mph - N/A Fog Fog
11:35 PM 42.8 °F 38.6 °F 42.8 °F 100% 30.08 in 0.8 mi NW 6.9 mph - N/A   Overcast
11:55 PM 42.4 °F 38.1 °F 42.4 °F 100% 30.08 in 0.5 mi NW 6.9 mph - N/A Fog Fog